Location: Christchurch
(43.5330°S, 172.6330°E)
Time: 20:51:44
(UTC+12:00)

MetOp-B - Pass Details

Date: 24 January 2019
Orbit: 819 x 822 km, 98.7° (Epoch: 21 April)

Event Time Altitude Azimuth Distance (km) Brightness Sun altitude
Rises 23:15:21 0° 165° (SSE) 3,392 7.9 -18.9°
Reaches altitude 10° 23:17:44 10° 163° (SSE) 2,451 7.1 -19.1°
Maximum altitude 23:23:10 77° 77° (ENE) 856 4.1 -19.7°
Enters shadow 23:25:55 30° 355° (N) 1,440 5.0 -20.0°
